Location: Blackie
(50.6050°N, 113.6230°W)
Time: 11:37:21
(UTC+00:00)

ISS - Pass Details

Date: 04 December 2021
Orbit: 413 x 422 km, 51.6° (Epoch: 19 January)

Event Time Altitude Azimuth Distance (km) Brightness Sun altitude
Rises 01:23:40 0° 286° (WNW) 2,384 1.1 -16.9°
Reaches altitude 10° 01:25:48 10° 282° (WNW) 1,515 0.0 -17.2°
Maximum altitude 01:29:08 56° 203° (SSW) 507 -3.2 -17.7°
Enters shadow 01:30:25 32° 140° (SE) 743 -2.8 -17.9°
